TimeCDT,TemperatureF,Dew PointF,Humidity,Sea Level PressureIn,VisibilityMPH,Wind Direction,Wind SpeedMPH,Gust SpeedMPH,PrecipitationIn,Events,Conditions,WindDirDegrees,DateUTC
12:15 AM,71.6,69.8,94,29.98,4.0,Calm,Calm,-,N/A,,Clear,0,2013-09-09 05:15:00
12:35 AM,71.6,69.8,94,29.98,4.0,Calm,Calm,-,N/A,,Clear,0,2013-09-09 05:35:00
12:55 AM,71.6,69.8,94,29.98,5.0,Calm,Calm,-,N/A,,Clear,0,2013-09-09 05:55:00
1:15 AM,71.6,69.8,94,29.98,5.0,Calm,Calm,-,N/A,,Clear,0,2013-09-09 06:15:00
1:35 AM,71.6,69.8,94,29.98,6.0,Calm,Calm,-,N/A,,Clear,0,2013-09-09 06:35:00
1:55 AM,71.6,69.8,94,29.97,7.0,Calm,Calm,-,N/A,,Partly Cloudy,0,2013-09-09 06:55:00
2:15 AM,71.6,69.8,94,29.97,9.0,Calm,Calm,-,N/A,,Scattered Clouds,0,2013-09-09 07:15:00
2:35 AM,71.6,69.8,94,29.97,8.0,Calm,Calm,-,N/A,,Mostly Cloudy,0,2013-09-09 07:35:00
2:55 AM,71.6,69.8,94,29.97,7.0,Calm,Calm,-,N/A,,Mostly Cloudy,0,2013-09-09 07:55:00
3:15 AM,71.6,69.8,94,29.97,8.0,Calm,Calm,-,N/A,,Partly Cloudy,0,2013-09-09 08:15:00
3:35 AM,71.6,68.0,88,29.97,7.0,Calm,Calm,-,N/A,,Partly Cloudy,0,2013-09-09 08:35:00
3:55 AM,69.8,68.0,94,29.98,5.0,Calm,Calm,-,N/A,,Partly Cloudy,0,2013-09-09 08:55:00
4:15 AM,69.8,66.2,88,29.98,6.0,Calm,Calm,-,N/A,,Clear,0,2013-09-09 09:15:00
4:35 AM,69.8,68.0,94,29.98,5.0,Calm,Calm,-,N/A,,Partly Cloudy,0,2013-09-09 09:35:00
4:55 AM,69.8,68.0,94,29.99,5.0,SSE,3.5,-,N/A,,Partly Cloudy,160,2013-09-09 09:55:00
5:15 AM,69.8,68.0,94,29.99,6.0,South,3.5,-,N/A,,Mostly Cloudy,170,2013-09-09 10:15:00
5:35 AM,71.6,68.0,88,29.99,7.0,Calm,Calm,-,N/A,,Scattered Clouds,0,2013-09-09 10:35:00
5:55 AM,71.6,69.8,94,30.00,6.0,Calm,Calm,-,N/A,,Clear,0,2013-09-09 10:55:00
6:15 AM,71.6,68.0,88,30.00,5.0,SSE,3.5,-,N/A,,Clear,150,2013-09-09 11:15:00
6:35 AM,69.8,68.0,94,30.00,5.0,Calm,Calm,-,N/A,,Clear,0,2013-09-09 11:35:00
6:55 AM,69.8,68.0,94,30.00,3.0,Calm,Calm,-,N/A,,Clear,0,2013-09-09 11:55:00
7:15 AM,69.8,68.0,94,30.00,3.0,Calm,Calm,-,N/A,,Clear,0,2013-09-09 12:15:00
7:35 AM,71.6,69.8,94,30.00,4.0,Calm,Calm,-,N/A,,Clear,0,2013-09-09 12:35:00
7:55 AM,71.6,69.8,94,30.01,6.0,Calm,Calm,-,N/A,,Clear,0,2013-09-09 12:55:00
8:15 AM,73.4,69.8,88,30.01,7.0,Calm,Calm,-,N/A,,Clear,0,2013-09-09 13:15:00
8:35 AM,75.2,71.6,89,30.01,6.0,SSE,3.5,-,N/A,,Clear,160,2013-09-09 13:35:00
8:55 AM,78.8,71.6,78,30.02,10.0,Calm,Calm,-,N/A,,Clear,0,2013-09-09 13:55:00
9:15 AM,80.6,71.6,74,30.02,10.0,Calm,Calm,-,N/A,,Clear,0,2013-09-09 14:15:00
9:35 AM,82.4,71.6,70,30.02,10.0,Calm,Calm,-,N/A,,Clear,0,2013-09-09 14:35:00
9:55 AM,84.2,71.6,66,30.03,10.0,Calm,Calm,-,N/A,,Clear,0,2013-09-09 14:55:00
10:15 AM,87.8,71.6,58,30.03,5.0,SW,3.5,-,N/A,,Clear,220,2013-09-09 15:15:00
10:35 AM,89.6,69.8,52,30.03,8.0,West,5.8,-,N/A,,Clear,270,2013-09-09 15:35:00
10:55 AM,89.6,69.8,52,30.03,10.0,WNW,3.5,-,N/A,,Clear,290,2013-09-09 15:55:00
11:15 AM,91.4,66.2,43,30.03,10.0,NW,5.8,-,N/A,,Clear,320,2013-09-09 16:15:00
11:35 AM,91.4,66.2,43,30.03,10.0,WNW,5.8,-,N/A,,Clear,300,2013-09-09 16:35:00
11:55 AM,93.2,66.2,41,30.03,8.0,NNW,5.8,-,N/A,,Clear,330,2013-09-09 16:55:00
12:15 PM,93.2,66.2,41,30.02,10.0,Calm,Calm,-,N/A,,Clear,0,2013-09-09 17:15:00
12:35 PM,93.2,64.4,38,30.02,9.0,WNW,5.8,-,N/A,,Clear,300,2013-09-09 17:35:00
12:55 PM,93.2,66.2,41,30.01,10.0,Calm,Calm,-,N/A,,Clear,0,2013-09-09 17:55:00
1:15 PM,95.0,64.4,36,30.01,10.0,West,6.9,-,N/A,,Partly Cloudy,280,2013-09-09 18:15:00
1:35 PM,95.0,66.2,39,30.00,10.0,WSW,6.9,-,N/A,Thunderstorm,Clear,250,2013-09-09 18:35:00
1:55 PM,93.2,64.4,38,30.00,10.0,Calm,Calm,-,N/A,Thunderstorm,Clear,0,2013-09-09 18:55:00
2:15 PM,95.0,64.4,36,29.99,10.0,South,9.2,-,N/A,,Partly Cloudy,170,2013-09-09 19:15:00
2:35 PM,93.2,66.2,41,29.99,10.0,SSE,4.6,-,N/A,,Clear,160,2013-09-09 19:35:00
2:55 PM,96.8,68.0,39,29.98,10.0,South,6.9,-,N/A,,Scattered Clouds,180,2013-09-09 19:55:00
3:15 PM,95.0,66.2,39,29.97,10.0,South,8.1,-,N/A,,Scattered Clouds,170,2013-09-09 20:15:00
3:35 PM,96.8,64.4,34,29.97,10.0,SW,10.4,16.1,N/A,,Scattered Clouds,230,2013-09-09 20:35:00
3:55 PM,96.8,64.4,34,29.97,10.0,WSW,9.2,-,N/A,,Partly Cloudy,240,2013-09-09 20:55:00
4:15 PM,96.8,66.2,37,29.97,10.0,South,11.5,16.1,N/A,,Clear,190,2013-09-09 21:15:00
4:35 PM,96.8,66.2,37,29.97,10.0,SW,8.1,-,N/A,,Scattered Clouds,220,2013-09-09 21:35:00
4:55 PM,95.0,66.2,39,29.97,10.0,South,11.5,-,N/A,,Partly Cloudy,190,2013-09-09 21:55:00
5:15 PM,95.0,66.2,39,29.98,10.0,SW,9.2,-,N/A,,Clear,220,2013-09-09 22:15:00
5:35 PM,93.2,64.4,38,29.98,10.0,SSW,12.7,-,N/A,,Clear,200,2013-09-09 22:35:00
5:55 PM,91.4,64.4,41,29.98,10.0,South,11.5,-,N/A,,Clear,190,2013-09-09 22:55:00
6:15 PM,91.4,64.4,41,29.99,10.0,SSW,9.2,-,N/A,,Clear,200,2013-09-09 23:15:00
6:35 PM,89.6,64.4,43,29.99,10.0,SSW,5.8,-,N/A,,Clear,210,2013-09-09 23:35:00
6:55 PM,87.8,66.2,49,29.99,10.0,SSW,5.8,-,N/A,,Clear,210,2013-09-09 23:55:00
7:15 PM,87.8,66.2,49,29.99,10.0,SSW,4.6,-,N/A,,Clear,210,2013-09-10 00:15:00
7:35 PM,84.2,66.2,55,29.99,10.0,SSW,3.5,-,N/A,,Clear,200,2013-09-10 00:35:00
7:55 PM,84.2,66.2,55,29.99,10.0,SSW,3.5,-,N/A,,Clear,200,2013-09-10 00:55:00
8:15 PM,82.4,68.0,62,30.00,10.0,South,3.5,-,N/A,,Clear,170,2013-09-10 01:15:00
8:35 PM,82.4,68.0,62,30.01,10.0,Calm,Calm,-,N/A,,Clear,0,2013-09-10 01:35:00
8:55 PM,80.6,69.8,70,30.01,10.0,South,3.5,-,N/A,,Clear,170,2013-09-10 01:55:00
9:15 PM,80.6,69.8,70,30.02,10.0,Calm,Calm,-,N/A,,Clear,0,2013-09-10 02:15:00
9:35 PM,80.6,69.8,70,30.03,10.0,Calm,Calm,-,N/A,,Clear,0,2013-09-10 02:35:00
9:55 PM,78.8,69.8,74,30.03,10.0,Calm,Calm,-,N/A,,Clear,0,2013-09-10 02:55:00
10:15 PM,78.8,69.8,74,30.03,10.0,Calm,Calm,-,N/A,,Mostly Cloudy,0,2013-09-10 03:15:00
10:35 PM,78.8,69.8,74,30.03,10.0,Calm,Calm,-,N/A,,Overcast,0,2013-09-10 03:35:00
10:55 PM,78.8,69.8,74,30.04,10.0,Calm,Calm,-,N/A,,Scattered Clouds,0,2013-09-10 03:55:00
11:15 PM,77.0,69.8,78,30.04,10.0,Calm,Calm,-,N/A,,Clear,0,2013-09-10 04:15:00
11:35 PM,77.0,69.8,78,30.04,10.0,South,3.5,-,N/A,,Clear,190,2013-09-10 04:35:00
11:55 PM,75.2,69.8,83,30.04,9.0,Calm,Calm,-,N/A,,Clear,0,2013-09-10 04:55:00